Airfield :
LOGIN :

Register | Disclaimer

   EN    FR    IT 

 










Legend :    VFR   Marginal VFR   IFR   Intensive IFR   Very Intensive IFR
Visi :
Ceiling :
>= 8 km
>= 3000ft
5 to 8 km
1000 to 3000 ft
1500m to 5 km
500 to 1000 ft
800 to 1500m
200 to 500 ft
< 800m
< 200 ft
Symbols :   Thunderstorms  Fog  Heavy snow  Heavy precipitations  Wind > 20 kt
SIGMETs :     Misc.  Thunderstorms  Icing  Turbulence  Mountain Waves  Volcanic Ashes







- Airport Elevation : 302 ft
- IATA code : CGN


EDDK - Cologne Bonn

CURRENT METAR :
  • 240820Z 34007KT 300V010 9999 FEW020 BKN100 BKN230 16/10 Q1023 NOSIG

EXPIRED METARs :
  • 240750Z 31003KT 240V040 9999 FEW018 SCT100 BKN230 16/11 Q1023 NOSIG
  • 240720Z 33004KT 300V030 9999 FEW015 SCT120 BKN230 15/11 Q1023 NOSIG
  • 240650Z 34003KT 300V360 9999 FEW020 BKN120 BKN230 15/11 Q1023 NOSIG
  • 240620Z 33003KT 290V360 CAVOK 14/11 Q1023 NOSIG
  • 240550Z VRB01KT CAVOK 13/11 Q1023 NOSIG

TAF TAF EDDK
Valid from the 24 at 06:00 until the 25 at 12:00 UTC


240500Z 2406/2512 VRB03KT 9999 BKN040
BECMG 2406/2410 32006KT
TEMPO 2502/2507 BKN012
No reported NOTAMs for that airfield.



MET'MAP, your aeronautical weather chart ! - Copyright ORBIFLY December 2007 - Disclaimer

ORBIFLY MET'MAP TEAM :

Programming & Development : Alexandra Zaïnal
Concept & Development : Baudouin d'Aumeries
Co-Development & Prog : Marc-Olivier Méhu
Technical & hardware support : Manuel Goepfert

Contact : metmap@orbifly.com




SOURCES & CREDITS :

   NOAA